Regional Weather Roundup
Issued by NWS

Home | Current Version | Previous Version | Text Only | Print | Product List | Glossary Off
Versions: 1 2 3 4 5 6 7 8 9 10 11 12 13 14 15 16 17 18 19 20 21 22 23 24 25 26 27 28 29 30 31 32 33 34 35 36 37 38 39 40 41 42 43 44 45 46 47 48 49 50

172
ASUS43 KTOP 060359
RWRKS

WEATHER ROUNDUP FOR KANSAS
NATIONAL WEATHER SERVICE GOODLAND KS
1100 PM CDT THU MAY 05 2016

NOTE:  "FAIR" INDICATES FEW OR NO CLOUDS BELOW 12,000 FEET WITH NO
SIGNIFICANT WEATHER AND/OR OBSTRUCTIONS TO VISIBILITY.

KSZ001>006-013>018-027>032-041>047-060500-
NORTHWEST KANSAS

CITY           SKY/WX    TMP DP  RH WIND       PRES   REMARKS
GOODLAND       CLOUDY    59  49  69 S14       30.04R
HAYS           CLEAR     57  43  58 SE7       30.05S
HILL CITY      CLOUDY    62  49  62 S8        30.04R
RUSSELL        CLEAR     60  45  57 SE9       30.04R
$$

KSZ061>065-074>080-084>089-060500-
SOUTHWEST KANSAS

CITY           SKY/WX    TMP DP  RH WIND       PRES   REMARKS
DODGE CITY     PTCLDY    60  45  57 SE13      30.06R
ELKHART          N/A     63  46  54 SE16        N/A
GARDEN CITY    CLEAR     60  48  64 SE13      30.04R
GREAT BEND     CLEAR     59  43  55 SE8       30.06R
LIBERAL        CLEAR     64  46  52 SE12      30.05S
$$

KSZ066>073-081>083-090>101-060500-
SOUTHEAST KANSAS

CITY           SKY/WX    TMP DP  RH WIND       PRES   REMARKS
CHANUTE        CLEAR     55  46  71 E3        30.06R
COFFEYVILLE    CLEAR     56  49  77 CALM      30.06R
HUTCHINSON     CLEAR     53  46  77 CALM      30.06R
MEDICINE LODGE   N/A     64  48  56 E7        30.06R
NEWTON         CLEAR     63  39  42 SE6       30.09R
PARSONS        CLEAR     55  51  86 CALM      30.07R
WICHITA INTL   CLEAR     59  47  64 CALM      30.06R
WICHITA JABRA  CLEAR     61  45  55 S6        30.06R
WINFIELD       CLEAR     62  46  55 SE3       30.46F
$$

KSZ007>012-019>026-033>040-048>060-102>105-060500-
NORTHEAST KANSAS

CITY           SKY/WX    TMP DP  RH WIND       PRES   REMARKS
CONCORDIA      CLEAR     61  44  53 S10       30.04R
EMPORIA        CLEAR     59  47  64 S6        30.06R
LAWRENCE       CLEAR     51  46  83 CALM      30.05R
MANHATTAN      CLEAR     57  45  64 S3        30.05R
OLATHE IND     CLEAR     56  42  59 CALM      30.06R
OLATHE EXE     CLEAR     56  46  69 CALM      30.06R
SALINA         CLEAR     60  48  64 SE5       30.05R
TOPEKA BILLARD CLEAR     58  48  69 CALM      30.04S
TOPEKA FORBES  CLEAR     55  47  74 S3        30.05R
$$




USA.gov is the U.S. government's official web portal to all federal, state and local government web resources and services.